Wind_Speed
15 17 23 21 21 23 24 19 14 16 20 15 17 19 18 18 18 17 16 17 18 19 16 16 22 25 23 21 20 21 21 22 21 19 20 21 21 19 15 12 16 31 23 11
19 23 20 20 20 22 23 20 22 19 18 18 19 20 21 20 19 17 17 19 18 13 11 21 26 27 29 28 26 26 24 23 23 23 23 23 23 20 20 16 11 23 27 21
24 20 13 22 20 20 22 22 21 20 16 18 19 23 21 19 18 18 16 14 12 13 12 24 25 26 27 30 30 29 30 30 27 26 26 26 26 27 25 23 15 11 21 24
27 24 22 16 22 22 23 20 20 20 20 21 21 22 27 24 20 16 15 13 13 9 11 12 24 26 24 23 24 29 28 32 33 33 31 30 31 29 31 30 27 27 24 25
29 27 25 26 22 20 23 18 18 20 23 21 21 16 24 26 23 20 16 14 10 8 6 11 24 29 27 24 23 23 23 26 31 33 35 35 34 32 32 35 37 35 31 31
26 22 25 22 23 21 19 18 20 19 22 22 28 26 19 25 28 25 16 12 10 7 4 13 21 29 28 27 27 27 27 26 27 30 32 35 36 34 33 35 38 38 38 37
25 26 21 19 15 17 17 18 18 18 18 18 26 29 22 12 15 17 16 10 7 5 3 2 19 17 27 27 26 27 28 30 31 30 31 35 34 33 33 33 33 35 39 42
21 25 28 20 24 22 20 24 26 20 14 16 20 31 15 15 16 17 14 10 7 7 4 1 14 15 24 25 24 24 25 28 30 34 34 34 37 36 34 35 32 33 33 35
18 12 21 7 9 17 21 20 17 14 26 20 15 8 8 13 13 13 12 10 6 4 2 3 5 12 14 19 21 20 20 21 24 28 32 34 35 36 38 35 38 35 33 31
10 13 11 12 11 13 16 15 14 20 14 18 20 11 11 9 7 12 10 8 4 2 1 2 4 7 7 12 13 21 15 14 17 20 22 24 27 29 33 34 32 28 26 30
13 13 16 12 13 17 13 19 22 20 16 12 13 18 2 10 12 6 8 5 3 1 4 5 5 9 7 7 10 22 19 12 11 14 14 15 17 22 23 24 29 29 29 32
9 11 22 24 16 10 13 15 7 11 17 22 24 21 7 6 11 7 3 3 2 1 2 5 6 8 16 22 19 20 20 18 22 14 11 10 10 11 14 20 23 27 28 31
3 9 17 22 26 14 18 24 23 24 26 26 16 9 3 5 6 5 6 4 4 6 10 9 10 13 24 26 25 26 27 30 32 34 29 20 12 12 14 14 17 20 25 24
12 12 16 19 1 7 10 7 13 17 22 30 32 31 13 10 13 10 8 8 8 10 12 16 25 18 23 30 32 32 32 32 33 31 32 35 29 17 14 17 19 17 18 24
11 16 16 17 16 14 16 17 16 17 20 21 19 9 8 7 9 10 8 11 13 13 14 15 16 22 31 31 32 30 31 29 30 31 31 28 31 37 25 24 22 21 22 22
12 15 13 15 15 17 16 17 17 19 19 18 18 19 15 14 12 13 11 11 13 14 14 16 16 20 25 27 28 27 25 24 29 29 28 24 22 29 31 26 29 27 27 24
13 12 13 17 10 9 18 20 20 21 21 19 18 15 5 9 10 9 11 13 14 14 16 18 24 30 32 33 33 32 30 28 26 27 29 28 25 22 27 25 29 28 29 29
15 12 16 17 14 9 4 5 9 13 15 18 15 11 9 10 10 12 13 14 14 16 22 28 31 34 34 34 33 32 30 30 31 29 29 30 28 23 24 24 24 25 23 30
17 16 11 10 14 13 13 7 2 5 8 11 11 10 10 8 11 11 8 16 25 28 29 29 28 29 31 34 35 36 36 35 31 31 31 30 28 32 23 28 27 24 30 27
17 16 17 11 4 5 0 1 2 3 8 6 9 10 9 9 13 10 13 16 22 25 26 30 33 34 35 35 34 35 34 34 34 33 31 35 36 33 35 33 35 32 28 29
11 19 19 18 11 9 3 3 2 7 2 5 3 5 11 15 16 22 25 23 26 25 26 31 30 28 27 28 29 30 30 30 29 31 34 35 39 42 41 37 36 37 32 30
9 14 16 17 12 12 8 4 4 3 1 7 12 15 17 17 18 19 24 29 26 26 28 29 26 23 21 18 19 20 20 21 23 27 32 34 38 40 42 43 41 37 36 32
9 11 10 9 8 7 5 7 10 14 14 12 15 18 19 23 28 26 26 29 27 26 28 25 26 25 21 16 22 20 17 20 22 24 25 28 33 39 40 39 43 38 34 32
8 12 12 9 6 10 7 10 14 17 13 14 15 19 22 25 24 25 31 29 28 28 27 25 26 25 24 20 18 20 21 19 21 23 24 25 28 31 35 38 36 38 34 29
13 8 7 12 13 14 14 12 12 14 16 16 23 25 22 23 25 27 30 31 28 24 24 23 24 25 23 23 19 19 21 19 19 20 22 21 23 23 27 33 37 34 36 36
14 17 17 17 13 10 9 15 13 15 15 21 25 26 25 24 28 28 27 24 27 24 22 21 19 19 20 24 23 22 20 22 22 20 20 21 22 22 21 26 32 35 36 36
Wind_Direction
228 225 224 232 237 241 252 256 266 243 237 237 237 238 236 237 236 237 225 222 219 218 241 233 243 243 247 244 252 230 231 231 237 239 241 242 242 247 244 277 272 218 226 265
229 236 237 243 239 243 243 249 248 250 242 246 246 247 241 235 234 230 229 218 210 224 234 249 256 255 253 257 261 259 244 239 235 240 241 240 238 242 235 253 283 233 231 260
237 237 254 238 241 241 241 243 248 248 243 246 246 251 239 233 220 209 207 199 212 222 237 248 248 251 255 260 262 262 259 253 250 247 246 245 239 239 237 242 231 233 233 259
244 244 249 249 245 241 247 244 247 248 242 243 235 252 233 218 209 211 208 211 221 223 234 238 240 240 247 248 248 257 260 261 257 253 254 252 246 243 242 247 234 233 229 239
248 241 246 247 248 242 245 244 242 246 248 254 241 241 288 198 202 204 202 198 192 193 199 235 242 248 248 248 252 253 256 260 258 255 251 253 252 249 245 242 247 244 237 237
250 245 240 248 242 243 245 249 249 244 243 244 243 244 240 223 202 195 194 185 169 168 196 236 246 248 250 252 256 257 255 256 260 256 250 248 253 252 249 250 249 250 249 244
238 239 236 233 232 235 238 238 241 230 231 243 246 236 243 179 151 178 182 173 162 162 173 197 244 259 255 265 262 264 260 254 254 257 254 248 248 247 247 250 253 254 251 247
261 241 218 233 231 243 242 234 241 250 247 259 274 229 166 167 155 158 165 148 141 143 164 42 251 257 266 264 263 262 263 259 250 247 251 254 251 252 251 254 253 255 259 258
274 273 218 232 223 233 241 252 252 292 269 265 243 134 135 161 168 167 158 148 147 141 120 36 338 262 262 269 262 254 255 255 257 258 252 250 253 255 254 252 255 258 259 260
276 275 222 221 235 245 235 250 250 245 270 271 266 226 267 177 208 182 164 155 167 161 209 321 359 350 330 291 297 269 254 248 251 254 255 255 254 252 253 257 255 250 250 251
273 261 249 237 239 241 232 241 237 253 228 251 264 273 220 220 222 135 155 178 198 253 251 286 301 305 308 312 317 285 281 291 249 239 244 251 255 257 250 241 242 241 240 249
267 258 260 248 234 236 233 242 240 268 227 235 262 263 205 255 236 274 211 234 206 148 317 315 312 315 282 283 279 282 276 284 292 264 244 243 245 251 242 238 237 238 242 245
259 257 264 251 242 240 245 251 255 254 261 267 259 246 202 202 208 212 207 237 287 283 291 305 296 300 278 275 276 276 280 277 282 284 285 271 258 260 261 251 242 238 236 241
251 268 265 281 288 267 276 255 253 253 257 258 255 263 245 221 235 247 258 272 281 292 297 286 280 288 287 282 282 285 286 283 282 279 274 280 270 272 269 267 262 253 242 239
261 267 267 270 271 272 272 270 265 250 254 260 261 282 270 236 234 245 246 270 277 284 289 292 296 289 288 289 288 285 277 274 268 270 270 272 278 264 283 278 271 271 264 250
251 265 267 274 268 267 272 268 261 253 253 257 260 262 257 257 255 267 278 276 279 285 289 286 292 294 291 288 289 289 286 280 268 267 271 269 276 280 269 272 274 278 275 267
268 253 263 268 287 268 268 265 259 255 249 248 254 263 247 231 273 262 267 274 283 284 280 287 293 292 290 289 288 287 282 277 273 269 265 267 272 280 273 261 268 270 270 268
248 259 254 272 275 263 266 277 260 265 251 237 234 239 256 244 263 279 288 276 263 277 293 294 292 289 287 285 284 283 282 277 268 263 265 264 260 251 279 268 253 263 268 264
236 244 263 251 259 266 279 235 249 243 219 209 215 228 247 253 283 313 240 262 270 285 296 299 295 293 287 286 284 275 273 274 272 266 256 259 260 258 248 270 260 267 264 277
225 224 240 256 230 248 326 199 185 223 230 201 210 242 254 271 280 256 312 303 299 298 297 297 298 295 293 289 283 281 276 270 267 264 260 252 254 257 255 251 266 268 269 270
210 219 227 240 256 266 321 213 294 242 184 122 187 268 287 280 277 278 278 294 290 304 300 301 299 299 296 292 287 286 284 282 278 270 261 255 252 253 254 255 261 266 265 268
205 197 222 225 239 246 240 266 235 235 333 302 286 279 282 283 282 288 286 289 301 305 307 307 306 305 302 300 300 298 297 296 287 278 272 265 256 253 253 253 256 261 263 263
239 220 232 215 233 228 234 239 275 277 284 287 290 287 287 285 293 299 297 296 306 301 306 302 305 304 305 312 308 306 308 309 302 293 285 278 270 260 255 253 249 251 257 262
237 251 260 271 258 272 263 274 270 280 285 286 279 279 288 294 296 300 296 295 295 301 304 295 297 301 303 298 287 292 295 297 300 301 296 291 280 267 259 249 247 251 246 251
237 283 272 262 265 266 268 264 261 257 275 294 293 299 303 293 295 296 301 300 298 303 298 295 295 299 297 293 290 285 288 291 299 299 300 304 293 277 259 251 244 246 243 238
259 259 258 260 256 247 265 267 279 291 295 288 291 300 300 295 293 289 286 293 290 289 291 295 301 303 303 297 288 288 286 285 289 293 299 294 287 280 268 256 246 245 247 248
Height
3138 3139 3137 3139 3139 3139 3137 3137 3135 3137 3139 3140 3141 3141 3142 3144 3146 3148 3150 3152 3155 3156 3151 3153 3154 3155 3157 3160 3161 3163 3165 3167 3168 3170 3172 3173 3175 3176 3178 3179 3176 3178 3183 3183
3138 3134 3135 3136 3136 3136 3136 3136 3136 3136 3136 3137 3138 3136 3137 3139 3141 3144 3146 3148 3149 3151 3151 3148 3149 3151 3152 3154 3157 3158 3160 3162 3164 3166 3168 3170 3171 3173 3174 3174 3173 3174 3179 3181
3131 3132 3131 3132 3132 3134 3133 3133 3132 3132 3132 3134 3134 3130 3131 3133 3136 3136 3139 3140 3144 3146 3144 3143 3145 3145 3147 3149 3151 3152 3154 3157 3159 3161 3162 3164 3166 3167 3168 3169 3171 3173 3177 3178
3127 3128 3128 3129 3128 3130 3129 3130 3130 3129 3129 3126 3126 3122 3121 3126 3131 3134 3137 3140 3141 3141 3140 3138 3139 3141 3142 3145 3146 3145 3148 3149 3152 3154 3156 3157 3160 3161 3163 3165 3166 3167 3169 3172
3121 3122 3124 3123 3124 3125 3125 3126 3125 3127 3125 3125 3121 3122 3114 3117 3124 3129 3133 3134 3136 3135 3134 3133 3133 3135 3138 3140 3141 3143 3143 3143 3144 3146 3148 3150 3153 3154 3156 3158 3158 3161 3164 3165
3117 3118 3118 3119 3120 3121 3123 3123 3123 3122 3122 3117 3115 3115 3113 3110 3114 3121 3127 3130 3129 3130 3130 3129 3129 3130 3132 3134 3136 3137 3138 3138 3138 3139 3141 3143 3144 3147 3149 3150 3152 3154 3156 3159
3111 3112 3114 3115 3117 3119 3121 3120 3117 3114 3111 3105 3109 3110 3110 3108 3112 3117 3123 3124 3124 3127 3129 3127 3126 3125 3127 3128 3130 3130 3131 3132 3133 3133 3133 3135 3137 3138 3140 3141 3144 3145 3146 3149
3105 3104 3106 3109 3113 3114 3112 3114 3110 3102 3097 3095 3099 3095 3102 3106 3109 3113 3118 3118 3121 3125 3125 3124 3121 3122 3121 3123 3124 3125 3125 3125 3125 3126 3127 3128 3129 3131 3133 3134 3135 3137 3138 3139
3104 3100 3103 3107 3109 3112 3111 3109 3109 3107 3104 3100 3098 3099 3104 3105 3108 3109 3110 3114 3118 3120 3122 3122 3120 3119 3119 3119 3118 3119 3119 3119 3120 3120 3120 3120 3121 3123 3124 3126 3128 3128 3131 3132
3108 3105 3104 3105 3107 3108 3107 3108 3109 3107 3106 3102 3099 3100 3104 3105 3110 3110 3108 3111 3114 3117 3121 3120 3120 3117 3117 3117 3115 3113 3114 3114 3114 3114 3114 3115 3114 3114 3116 3118 3120 3120 3123 3124
3108 3108 3102 3103 3102 3102 3104 3104 3106 3107 3110 3102 3101 3098 3100 3104 3104 3099 3107 3108 3109 3113 3115 3116 3115 3113 3114 3114 3113 3111 3111 3109 3109 3109 3108 3109 3109 3110 3110 3110 3112 3112 3115 3117
3106 3102 3099 3098 3098 3097 3099 3100 3101 3104 3102 3101 3098 3099 3099 3099 3102 3102 3105 3108 3105 3109 3110 3110 3109 3109 3108 3107 3108 3107 3108 3106 3104 3105 3104 3104 3104 3104 3104 3105 3104 3106 3107 3109
3102 3100 3097 3093 3094 3094 3097 3098 3099 3102 3103 3100 3100 3100 3102 3102 3105 3104 3106 3105 3105 3105 3104 3105 3104 3104 3102 3102 3102 3102 3102 3100 3101 3099 3100 3099 3099 3099 3099 3099 3099 3098 3099 3101
3100 3099 3098 3093 3096 3096 3096 3095 3096 3097 3097 3095 3096 3095 3098 3100 3102 3101 3101 3101 3103 3102 3101 3100 3098 3098 3096 3096 3095 3095 3095 3094 3093 3093 3093 3091 3094 3092 3093 3094 3094 3094 3093 3093
3100 3097 3096 3094 3093 3093 3094 3094 3093 3094 3094 3094 3093 3095 3096 3094 3098 3098 3098 3098 3099 3099 3098 3096 3093 3090 3089 3088 3087 3087 3086 3087 3086 3085 3086 3086 3084 3086 3087 3087 3087 3088 3089 3089
3096 3094 3093 3091 3090 3090 3090 3090 3090 3090 3091 3091 3091 3091 3093 3095 3095 3096 3096 3096 3096 3095 3094 3091 3088 3085 3083 3082 3080 3079 3080 3079 3079 3079 3079 3079 3079 3076 3078 3081 3081 3081 3081 3082
3093 3092 3091 3088 3087 3087 3087 3084 3084 3085 3086 3088 3089 3090 3089 3091 3092 3093 3093 3093 3092 3090 3086 3083 3080 3078 3076 3075 3073 3072 3072 3072 3071 3071 3071 3072 3072 3072 3071 3071 3074 3075 3075 3074
3090 3090 3089 3087 3086 3085 3081 3081 3082 3082 3081 3082 3085 3087 3088 3089 3089 3089 3088 3087 3084 3082 3078 3075 3073 3071 3069 3067 3066 3064 3063 3063 3064 3064 3064 3064 3065 3067 3067 3063 3065 3067 3068 3069
3086 3088 3087 3085 3081 3080 3078 3078 3080 3080 3080 3081 3083 3086 3086 3086 3087 3086 3080 3078 3077 3075 3072 3069 3065 3062 3058 3057 3056 3055 3054 3054 3054 3055 3056 3057 3057 3057 3059 3060 3059 3059 3060 3060
3082 3083 3086 3082 3083 3080 3079 3078 3078 3079 3079 3079 3081 3083 3083 3083 3084 3084 3075 3073 3071 3068 3065 3059 3055 3052 3049 3047 3044 3041 3041 3042 3044 3045 3046 3047 3048 3048 3049 3051 3049 3051 3052 3051
3077 3080 3081 3082 3082 3078 3076 3077 3076 3079 3081 3076 3079 3079 3079 3078 3077 3073 3070 3068 3063 3059 3056 3051 3048 3045 3041 3037 3035 3034 3033 3033 3033 3033 3034 3035 3036 3037 3038 3041 3041 3041 3043 3043
3074 3076 3077 3078 3079 3078 3075 3075 3077 3075 3075 3076 3075 3074 3073 3072 3070 3068 3063 3058 3055 3052 3047 3043 3040 3038 3035 3032 3029 3027 3026 3025 3024 3023 3023 3023 3024 3025 3028 3031 3031 3032 3034 3035
3073 3072 3071 3073 3074 3072 3073 3073 3073 3072 3072 3072 3071 3069 3066 3063 3060 3058 3054 3050 3048 3045 3041 3038 3034 3032 3030 3027 3026 3023 3021 3019 3017 3015 3013 3012 3012 3013 3016 3019 3020 3023 3025 3027
3069 3070 3069 3070 3070 3070 3069 3070 3069 3068 3067 3066 3065 3061 3059 3057 3054 3050 3047 3044 3041 3037 3034 3031 3029 3026 3024 3022 3021 3018 3016 3014 3012 3008 3006 3004 3002 3002 3004 3007 3009 3011 3016 3020
3067 3066 3066 3066 3067 3067 3068 3066 3064 3063 3061 3061 3058 3055 3052 3050 3047 3044 3040 3036 3033 3030 3027 3025 3023 3020 3018 3016 3014 3012 3010 3009 3007 3004 3001 2998 2995 2993 2993 2995 2998 3002 3006 3007
3064 3064 3063 3062 3063 3063 3062 3059 3059 3058 3058 3054 3050 3048 3046 3044 3040 3036 3032 3029 3027 3023 3021 3020 3018 3014 3012 3009 3007 3006 3004 3002 3001 2998 2996 2993 2990 2988 2987 2987 2988 2992 2994 2998